Theta_e
326 326 325 325 325 326 326 325 325 325 325 325 324 324 324 325 324 324 324 324 325 325 325 325 326 325 326 325 325 324 323 323 323 324 323 323 322 322 321 321 321 321
324 324 324 324 324 323 324 324 324 323 323 322 322 322 321 321 321 322 322 322 323 323 323 323 323 323 323 323 323 322 322 322 322 323 322 322 321 321 321 321 321 321
319 320 321 322 321 320 319 320 320 320 319 319 318 318 316 314 315 315 316 318 319 320 320 321 321 321 321 321 322 321 320 320 320 321 321 321 320 320 320 320 320 320
310 312 313 313 313 313 313 312 312 312 312 311 310 310 310 311 311 311 312 310 313 314 316 316 317 319 319 320 320 319 320 320 320 321 320 320 320 320 320 320 319 319
307 307 307 308 308 308 309 309 308 308 308 308 307 308 307 308 309 309 310 310 311 312 313 313 315 315 316 317 318 317 318 318 319 319 319 318 319 319 319 319 318 318
304 305 305 306 306 306 306 305 305 306 305 305 306 305 306 306 307 307 307 308 309 309 310 311 312 313 313 314 315 315 316 317 317 318 317 317 318 318 319 319 318 318
303 303 303 303 303 304 304 303 303 303 304 304 304 304 304 305 305 306 306 306 307 307 308 309 309 309 310 311 311 312 313 314 314 315 315 315 315 315 317 317 317 317
301 301 301 302 301 302 302 301 302 302 302 302 302 302 303 303 303 304 304 305 305 305 305 306 307 307 307 307 308 308 309 310 311 311 312 312 313 313 314 315 315 315
300 300 300 300 300 300 300 300 299 299 300 301 301 301 301 301 301 301 302 302 303 303 303 303 303 304 305 305 306 306 306 307 308 308 308 309 309 310 311 313 313 313
298 298 298 299 299 298 298 298 298 298 299 299 299 300 299 299 300 300 300 301 301 301 301 301 301 302 303 303 303 303 304 304 306 306 307 307 307 308 309 309 309 310
297 297 297 297 297 297 296 296 297 297 297 298 298 298 298 299 298 299 299 300 300 300 300 300 301 302 302 301 300 300 300 300 300 301 302 302 303 305 302 306 307 307
295 296 296 296 296 295 295 296 296 296 296 297 297 297 297 297 297 298 298 298 299 299 300 300 301 301 300 300 300 300 300 300 300 300 300 300 301 301 302 302 302 303
295 295 295 295 295 295 295 295 295 295 295 295 295 295 296 296 295 296 296 297 297 298 298 299 300 300 300 300 299 299 299 298 299 299 299 300 300 299 300 301 301 301
294 294 294 294 294 294 294 294 294 294 294 294 294 294 294 294 295 295 295 295 296 296 297 298 298 299 299 299 299 299 299 298 298 298 298 298 299 299 299 299 299 299
292 292 293 293 293 293 293 293 293 293 293 293 293 293 294 293 294 294 294 294 294 294 295 296 297 298 297 296 297 298 298 298 298 298 297 297 298 298 298 298 298 299
292 292 292 292 292 292 292 292 292 292 293 292 292 292 292 293 293 293 293 293 293 293 294 295 296 296 291 289 291 295 297 298 298 298 297 297 297 297 297 297 297 298
291 291 291 291 291 291 291 292 291 292 292 291 291 291 291 291 292 292 292 292 292 292 293 294 295 294 288 291 292 292 294 296 297 297 297 297 297 296 296 296 296 296
291 290 291 290 290 290 290 290 290 290 291 291 291 291 291 291 291 291 291 291 292 292 292 292 293 290 289 290 291 292 292 294 296 296 296 296 296 296 295 295 295 296
289 289 289 289 289 289 289 290 289 290 290 290 290 290 290 290 290 291 290 291 291 291 291 292 292 290 289 290 290 291 291 292 295 296 295 295 295 295 295 295 295 295
289 289 289 289 288 288 289 289 289 289 289 289 289 289 290 290 289 289 290 290 290 290 290 291 291 289 288 289 290 290 291 291 294 295 294 294 294 294 294 294 294 294
289 289 289 289 289 289 289 289 289 289 289 289 289 289 289 289 289 289 289 289 289 289 290 290 292 288 288 289 289 290 290 291 294 294 293 293 294 294 293 293 293 294
289 289 289 289 288 288 288 288 288 288 288 288 288 288 288 288 288 288 288 289 289 288 289 289 290 288 288 288 288 289 289 292 293 292 292 292 292 293 293 293 293 293
289 289 289 288 288 288 288 288 287 287 287 287 288 288 288 288 288 288 288 288 288 288 288 288 289 289 288 287 288 288 289 291 292 292 291 291 292 292 292 293 293 293
290 290 289 288 288 288 288 287 287 287 287 287 287 287 287 287 287 287 288 288 287 287 288 287 288 288 287 287 287 288 288 289 291 291 290 290 291 292 292 292 291 288
289 289 289 288 288 288 288 287 287 287 286 286 287 287 287 287 287 287 287 288 288 287 285 285 287 287 287 287 287 288 289 290 290 290 289 289 290 290 291 291 291 289
288 288 288 288 287 286 286 286 286 286 286 286 286 287 287 286 286 287 286 287 287 286 287 287 287 287 288 287 287 287 288 288 289 289 288 288 289 288 288 289 289 290
Wind_Speed
6 5 5 5 5 5 4 5 3 4 5 5 5 5 5 4 3 4 5 6 7 7 8 8 8 9 8 9 9 9 10 10 10 9 10 10 10 10 11 12 12 10
9 7 6 6 6 5 5 5 6 6 5 5 5 4 4 4 4 5 6 6 7 7 7 8 8 8 8 8 8 9 9 10 11 8 9 11 10 10 12 12 12 11
6 7 7 8 6 6 6 5 5 5 5 4 4 3 3 2 2 2 3 3 5 5 6 6 7 7 8 8 8 8 9 10 10 9 10 11 10 10 10 10 10 11
5 5 5 5 5 6 5 5 4 3 4 4 3 2 2 2 1 2 2 2 3 3 3 4 4 5 6 7 7 7 8 9 9 9 10 9 10 10 10 9 10 9
5 5 4 5 4 5 5 5 4 4 3 3 3 3 3 2 2 2 1 1 1 1 1 2 2 3 3 4 5 6 6 7 7 8 8 9 9 9 9 9 10 11
4 4 4 4 4 5 4 4 4 3 3 3 2 2 2 1 1 1 1 0 0 0 1 1 1 1 1 2 3 4 5 5 5 6 8 8 8 7 6 8 9 10
5 4 5 4 4 4 5 4 3 3 2 2 2 2 1 1 1 1 0 0 1 1 1 1 1 1 0 1 2 3 3 5 5 6 7 7 7 7 7 8 8 9
5 5 4 4 5 4 4 4 3 3 2 2 3 2 2 1 1 1 0 0 1 1 0 0 0 0 0 1 2 2 3 3 4 5 6 6 6 7 7 6 7 8
5 5 5 5 5 4 4 4 3 3 2 3 3 3 2 2 2 1 1 1 1 1 1 1 1 1 1 1 1 2 2 2 3 4 4 5 6 6 6 6 7 7
5 5 5 5 5 4 5 4 3 3 2 3 3 2 3 3 2 2 2 1 2 2 2 2 2 2 1 1 1 1 2 3 3 3 4 4 5 5 5 6 6 7
6 5 5 5 5 4 5 4 4 3 3 3 3 3 2 2 2 2 2 2 2 2 2 2 2 2 2 2 2 1 2 2 2 3 3 4 4 5 5 5 6 6
5 5 5 5 5 5 5 4 4 3 3 2 2 3 3 2 2 2 2 2 2 3 2 3 2 2 2 2 2 2 2 2 2 2 3 3 3 4 4 5 5 6
5 5 5 5 4 4 4 4 4 3 3 3 2 2 2 3 2 2 2 2 2 2 2 2 2 2 2 3 2 2 2 3 3 3 3 3 3 4 4 5 5 5
5 5 5 4 4 4 4 4 4 3 3 3 2 2 3 2 2 2 1 1 2 2 2 2 1 2 2 3 3 3 3 3 3 3 4 4 4 4 4 4 5 5
6 5 4 5 5 5 4 4 4 3 3 3 3 3 2 2 2 2 2 2 2 3 3 2 2 2 3 4 4 4 3 3 3 3 4 4 4 4 4 4 5 5
6 6 5 5 5 5 5 4 4 4 4 3 3 3 3 2 2 2 3 3 3 3 2 2 2 1 3 5 5 4 4 3 3 3 3 3 4 4 4 4 5 5
7 6 6 6 5 5 5 4 4 3 3 3 3 3 3 3 2 3 3 2 2 2 2 1 1 1 4 5 5 5 5 4 4 4 4 4 4 4 5 5 5 6
6 6 6 6 5 5 4 4 3 3 3 3 3 3 2 2 3 2 2 2 1 1 1 1 1 2 5 5 6 5 4 5 4 4 4 4 4 4 5 5 6 6
5 5 5 5 4 4 4 3 4 3 3 2 2 2 1 2 2 2 2 2 2 2 2 2 2 2 5 6 6 6 6 6 4 4 4 4 4 5 5 5 5 6
5 5 6 5 5 5 4 4 4 3 3 2 2 1 1 1 1 1 1 1 1 2 2 2 2 2 5 6 7 7 7 6 5 5 5 5 6 6 5 6 6 6
6 6 6 6 6 6 5 5 4 4 3 2 2 1 1 0 0 1 1 1 1 2 2 3 2 3 5 6 6 7 7 7 4 4 5 5 6 6 7 7 8 7
7 7 6 6 6 6 5 5 4 3 4 3 2 1 1 0 1 1 2 2 2 2 3 4 3 3 5 6 7 7 8 5 4 5 5 6 7 7 7 7 7 8
7 7 7 7 6 6 6 5 5 4 3 2 2 2 2 2 2 2 2 2 3 3 3 4 5 4 4 7 8 9 7 4 5 5 6 7 7 7 7 7 8 8
7 6 7 7 6 6 5 4 4 3 3 2 1 1 1 1 1 2 3 3 3 3 2 3 5 5 5 8 9 9 8 6 5 6 7 7 8 8 7 7 8 11
6 5 6 6 5 5 4 4 4 3 2 2 1 1 1 1 2 2 3 3 3 4 3 5 6 6 7 8 8 8 6 5 5 6 7 7 7 8 7 7 8 8
5 6 5 6 6 5 4 4 3 3 3 3 2 2 2 2 3 3 4 4 4 4 4 5 5 5 5 7 8 9 9 6 6 6 7 8 8 8 9 9 9 10
Wind_Direction
201 196 194 194 200 210 200 202 203 212 218 220 226 227 232 235 240 234 239 242 243 246 247 249 252 253 254 255 255 255 255 258 259 260 259 255 252 252 254 253 253 254
202 202 202 205 201 204 210 211 209 209 204 205 203 198 193 200 201 214 223 228 232 238 243 247 249 252 253 253 253 252 254 254 256 254 260 260 261 261 260 260 261 262
166 176 181 187 187 180 176 176 183 183 184 181 175 191 171 173 188 193 207 220 230 233 234 233 238 242 244 247 248 249 250 253 255 256 255 257 256 255 259 261 260 259
116 123 127 127 136 142 147 148 148 148 152 154 142 123 138 155 184 177 188 200 219 223 222 234 237 240 242 243 246 250 252 253 255 256 256 257 257 257 258 261 262 261
114 112 113 119 122 129 137 139 137 133 126 121 133 152 160 160 169 161 173 168 195 208 221 231 234 243 243 245 244 250 252 256 257 257 259 262 264 265 268 268 269 269
108 112 118 122 128 134 126 116 112 112 122 138 127 141 118 124 124 101 83 23 40 304 254 255 266 255 255 261 261 257 262 265 267 269 270 272 274 274 271 270 272 273
123 117 112 108 107 106 112 115 117 128 131 122 134 115 114 119 105 105 106 158 231 230 233 229 241 257 279 280 257 261 268 267 273 273 269 265 269 273 270 273 276 277
124 123 123 124 124 118 119 119 123 121 117 129 116 92 86 80 83 71 37 329 234 235 252 250 6 133 269 258 246 242 245 249 253 258 258 264 269 265 267 268 269 273
126 123 124 125 122 119 115 111 107 99 101 111 101 101 80 70 64 72 70 83 117 75 62 62 38 41 42 313 287 279 273 265 272 273 276 277 276 280 284 286 284 283
118 118 121 123 117 109 110 97 95 88 80 82 83 78 88 74 60 68 81 85 87 79 74 73 71 68 64 43 0 330 317 315 305 304 298 297 297 297 301 305 299 297
121 123 120 115 111 109 104 98 93 93 79 82 93 93 92 97 93 70 76 75 70 70 80 84 78 65 53 44 36 19 357 332 328 325 319 313 311 311 313 308 304 302
127 127 125 121 119 115 110 103 103 98 101 88 85 108 96 80 80 71 53 68 67 69 75 83 80 71 62 47 39 28 13 352 341 332 325 318 314 320 322 319 312 309
138 133 128 127 120 115 112 111 105 103 106 101 76 80 89 89 72 73 53 54 70 63 65 59 64 48 43 30 17 10 4 359 347 335 332 327 326 323 321 323 319 314
132 129 127 125 120 119 117 114 112 111 105 104 104 97 89 82 85 81 81 70 59 55 46 40 39 48 35 25 9 0 354 348 343 336 334 328 324 320 324 319 314 308
137 132 128 127 129 124 122 121 118 118 121 120 118 110 103 104 97 89 85 83 63 51 40 34 37 34 36 9 353 349 350 335 328 323 320 317 316 313 306 301 296 297
143 143 143 142 139 135 131 133 137 139 139 132 118 110 102 92 88 73 64 53 52 52 49 39 42 51 23 335 322 334 325 315 307 299 299 296 301 304 298 289 292 291
149 150 149 145 139 136 138 139 137 137 127 112 98 86 82 73 68 67 56 44 44 38 44 45 37 51 340 321 319 317 311 309 305 305 300 292 287 297 295 295 287 285
150 147 142 137 140 135 130 123 112 100 87 78 72 69 65 66 69 65 50 34 17 16 13 11 354 340 313 314 310 317 311 309 300 293 297 289 285 281 282 281 284 284
149 145 136 135 132 125 122 118 111 102 104 101 90 74 61 65 59 49 50 26 356 353 342 330 318 329 307 307 315 319 315 301 287 284 281 282 280 278 279 282 288 290
155 146 142 140 138 136 137 138 137 129 119 110 107 108 89 75 61 46 29 1 330 314 307 300 289 307 303 304 298 296 293 291 277 278 280 280 282 283 282 281 280 285
161 156 147 147 148 147 146 144 141 133 134 135 130 128 121 97 14 16 353 304 291 290 295 287 260 267 279 282 284 288 295 291 273 281 283 279 276 272 272 273 275 274
169 161 153 149 148 147 145 144 144 145 139 131 130 125 103 252 288 264 255 245 241 253 258 268 260 256 281 290 298 304 309 293 285 284 279 276 273 268 264 267 267 265
173 161 154 150 150 150 149 147 145 145 136 142 146 153 168 197 224 248 253 254 247 239 261 284 294 299 291 293 296 296 296 280 277 269 266 266 265 264 263 259 257 256
171 163 152 150 150 148 141 132 126 122 125 148 143 162 178 196 244 254 258 266 278 278 270 290 290 289 272 278 273 266 264 271 267 266 267 266 268 263 262 263 254 242
162 153 143 142 137 132 129 132 138 129 125 139 169 222 255 250 244 260 263 252 237 252 251 254 262 264 254 263 266 269 268 273 270 275 274 273 278 278 274 272 274 255
151 142 136 137 136 130 133 134 131 138 156 169 183 208 218 234 228 236 244 246 233 227 232 243 262 260 253 262 269 278 278 285 287 280 285 289 288 287 289 281 275 276